QPF
0.00 0.00 0.00 0.00 0.00 0.00 0.00 0.00 0.00 0.00 0.00 0.00 0.00 0.00 0.00 0.00 0.00 0.00 0.00 0.00 0.00 0.00 0.00 0.00 0.00 0.00 0.00 0.00 0.00 0.00 0.00 0.00 0.00 0.04 0.07 0.08 0.13 0.11 0.02 0.00 0.00 0.00 0.00 0.00
0.00 0.00 0.00 0.00 0.00 0.00 0.00 0.00 0.00 0.00 0.00 0.00 0.00 0.00 0.00 0.00 0.00 0.00 0.00 0.00 0.00 0.00 0.00 0.00 0.00 0.00 0.00 0.00 0.00 0.00 0.00 0.00 0.00 0.02 0.03 0.08 0.22 0.29 0.07 0.00 0.00 0.00 0.00 0.00
0.00 0.00 0.00 0.00 0.00 0.00 0.00 0.00 0.00 0.00 0.00 0.00 0.00 0.00 0.00 0.00 0.00 0.00 0.00 0.00 0.00 0.00 0.00 0.00 0.00 0.00 0.00 0.00 0.00 0.00 0.00 0.00 0.00 0.00 0.03 0.10 0.24 0.40 0.48 0.23 0.04 0.00 0.00 0.00
0.00 0.00 0.00 0.00 0.00 0.00 0.00 0.00 0.00 0.00 0.00 0.00 0.00 0.00 0.00 0.00 0.00 0.00 0.00 0.00 0.00 0.00 0.00 0.00 0.00 0.00 0.00 0.00 0.00 0.00 0.00 0.00 0.00 0.00 0.00 0.05 0.13 0.19 0.17 0.16 0.11 0.03 0.00 0.00
0.00 0.00 0.00 0.00 0.00 0.00 0.00 0.00 0.00 0.00 0.00 0.00 0.00 0.00 0.00 0.00 0.00 0.00 0.00 0.00 0.00 0.00 0.00 0.00 0.00 0.00 0.00 0.00 0.00 0.00 0.00 0.00 0.00 0.00 0.00 0.03 0.06 0.27 0.32 0.18 0.19 0.06 0.00 0.00
0.00 0.00 0.00 0.00 0.00 0.00 0.00 0.00 0.00 0.00 0.00 0.00 0.00 0.00 0.00 0.00 0.00 0.01 0.00 0.00 0.00 0.00 0.00 0.00 0.00 0.00 0.00 0.00 0.00 0.00 0.00 0.00 0.00 0.00 0.00 0.01 0.05 0.14 0.34 0.36 0.30 0.04 0.00 0.00
0.00 0.00 0.00 0.00 0.00 0.00 0.00 0.00 0.00 0.00 0.00 0.01 0.01 0.01 0.01 0.01 0.01 0.00 0.00 0.00 0.00 0.00 0.00 0.00 0.00 0.00 0.00 0.00 0.00 0.00 0.00 0.00 0.00 0.00 0.00 0.01 0.03 0.09 0.34 0.28 0.22 0.04 0.01 0.04
0.00 0.00 0.00 0.00 0.00 0.00 0.00 0.00 0.00 0.00 0.00 0.00 0.00 0.00 0.00 0.00 0.00 0.00 0.00 0.00 0.00 0.00 0.00 0.00 0.00 0.00 0.00 0.00 0.00 0.00 0.00 0.00 0.00 0.00 0.00 0.00 0.03 0.06 0.24 0.26 0.23 0.13 0.10 0.10
0.00 0.00 0.00 0.00 0.00 0.00 0.00 0.00 0.00 0.02 0.01 0.00 0.00 0.00 0.01 0.00 0.00 0.00 0.00 0.00 0.00 0.00 0.00 0.00 0.00 0.00 0.00 0.00 0.00 0.00 0.00 0.00 0.00 0.00 0.00 0.00 0.02 0.03 0.12 0.19 0.20 0.28 0.23 0.15
0.00 0.00 0.00 0.00 0.00 0.00 0.00 0.00 0.01 0.06 0.06 0.02 0.00 0.02 0.01 0.01 0.00 0.00 0.00 0.00 0.00 0.00 0.00 0.00 0.00 0.00 0.00 0.00 0.00 0.00 0.00 0.00 0.00 0.00 0.00 0.00 0.01 0.04 0.07 0.13 0.13 0.17 0.16 0.13
0.00 0.00 0.00 0.00 0.00 0.00 0.00 0.01 0.01 0.03 0.03 0.03 0.01 0.01 0.01 0.01 0.00 0.00 0.00 0.00 0.00 0.00 0.00 0.00 0.00 0.00 0.00 0.00 0.00 0.00 0.00 0.00 0.00 0.00 0.00 0.00 0.00 0.03 0.16 0.24 0.17 0.14 0.14 0.09
0.00 0.00 0.00 0.00 0.00 0.00 0.00 0.00 0.02 0.05 0.05 0.06 0.05 0.01 0.00 0.00 0.00 0.00 0.00 0.00 0.00 0.00 0.00 0.00 0.00 0.00 0.00 0.00 0.00 0.00 0.00 0.00 0.00 0.00 0.00 0.01 0.01 0.05 0.09 0.28 0.23 0.13 0.14 0.12
0.00 0.00 0.00 0.00 0.00 0.00 0.01 0.00 0.01 0.05 0.05 0.03 0.05 0.01 0.00 0.00 0.00 0.00 0.00 0.00 0.00 0.00 0.00 0.00 0.00 0.00 0.00 0.00 0.00 0.00 0.00 0.00 0.00 0.00 0.00 0.00 0.03 0.04 0.10 0.31 0.22 0.18 0.18 0.14
0.00 0.00 0.00 0.00 0.00 0.00 0.00 0.00 0.00 0.02 0.02 0.02 0.02 0.00 0.00 0.00 0.00 0.00 0.00 0.00 0.00 0.00 0.00 0.00 0.00 0.00 0.00 0.00 0.00 0.00 0.00 0.00 0.00 0.00 0.00 0.04 0.08 0.06 0.14 0.21 0.19 0.14 0.20 0.12
0.00 0.00 0.01 0.01 0.00 0.00 0.00 0.00 0.00 0.01 0.00 0.02 0.00 0.00 0.00 0.00 0.00 0.00 0.00 0.00 0.00 0.00 0.00 0.00 0.00 0.00 0.00 0.00 0.00 0.00 0.00 0.00 0.00 0.00 0.02 0.18 0.09 0.05 0.06 0.07 0.07 0.07 0.10 0.07
0.01 0.01 0.01 0.00 0.00 0.00 0.00 0.00 0.00 0.00 0.01 0.01 0.00 0.00 0.00 0.00 0.00 0.00 0.00 0.00 0.00 0.00 0.00 0.00 0.00 0.00 0.00 0.00 0.00 0.00 0.00 0.00 0.00 0.01 0.11 0.11 0.14 0.07 0.05 0.04 0.02 0.02 0.04 0.04
0.01 0.01 0.02 0.01 0.00 0.00 0.01 0.01 0.02 0.01 0.01 0.00 0.00 0.00 0.00 0.00 0.00 0.00 0.00 0.00 0.00 0.00 0.00 0.00 0.00 0.00 0.00 0.00 0.00 0.00 0.00 0.00 0.00 0.08 0.21 0.12 0.11 0.05 0.03 0.02 0.01 0.01 0.03 0.02
0.00 0.00 0.01 0.01 0.01 0.02 0.01 0.00 0.01 0.00 0.00 0.00 0.00 0.00 0.00 0.00 0.00 0.00 0.00 0.00 0.00 0.00 0.00 0.00 0.00 0.00 0.00 0.00 0.00 0.00 0.00 0.00 0.01 0.20 0.24 0.16 0.04 0.03 0.01 0.02 0.01 0.00 0.02 0.00
0.02 0.00 0.01 0.01 0.01 0.01 0.01 0.02 0.01 0.00 0.00 0.00 0.00 0.00 0.00 0.00 0.00 0.00 0.00 0.00 0.00 0.00 0.00 0.00 0.00 0.00 0.00 0.00 0.00 0.00 0.00 0.00 0.11 0.10 0.09 0.08 0.02 0.02 0.03 0.01 0.00 0.00 0.01 0.01
0.04 0.03 0.02 0.01 0.02 0.03 0.04 0.02 0.00 0.00 0.01 0.00 0.00 0.00 0.00 0.00 0.00 0.00 0.00 0.00 0.00 0.00 0.00 0.00 0.00 0.00 0.00 0.00 0.00 0.00 0.01 0.10 0.14 0.06 0.05 0.01 0.03 0.01 0.00 0.00 0.00 0.00 0.00 0.00
0.03 0.04 0.03 0.03 0.04 0.04 0.03 0.01 0.00 0.01 0.02 0.00 0.01 0.00 0.00 0.01 0.00 0.00 0.00 0.00 0.00 0.00 0.00 0.00 0.00 0.00 0.00 0.00 0.00 0.00 0.08 0.14 0.06 0.03 0.02 0.01 0.02 0.01 0.00 0.00 0.00 0.00 0.00 0.00
0.03 0.03 0.03 0.06 0.05 0.02 0.00 0.00 0.01 0.02 0.02 0.01 0.01 0.00 0.00 0.00 0.00 0.00 0.00 0.00 0.00 0.00 0.00 0.00 0.00 0.00 0.00 0.00 0.00 0.01 0.12 0.17 0.05 0.03 0.03 0.03 0.03 0.02 0.00 0.00 0.00 0.00 0.00 0.00
0.03 0.06 0.06 0.04 0.01 0.00 0.00 0.03 0.03 0.02 0.01 0.00 0.00 0.00 0.00 0.00 0.00 0.00 0.00 0.00 0.00 0.00 0.00 0.00 0.00 0.00 0.00 0.00 0.00 0.03 0.11 0.03 0.01 0.02 0.02 0.02 0.02 0.01 0.00 0.00 0.00 0.00 0.00 0.00
0.01 0.03 0.04 0.03 0.00 0.01 0.01 0.01 0.00 0.00 0.00 0.00 0.00 0.00 0.00 0.00 0.00 0.00 0.00 0.00 0.00 0.00 0.00 0.00 0.00 0.00 0.00 0.01 0.01 0.03 0.01 0.00 0.01 0.01 0.04 0.02 0.01 0.00 0.00 0.00 0.00 0.00 0.00 0.00
0.03 0.04 0.03 0.01 0.01 0.01 0.01 0.00 0.00 0.00 0.00 0.00 0.00 0.00 0.00 0.00 0.00 0.00 0.00 0.00 0.00 0.00 0.00 0.00 0.00 0.00 0.01 0.02 0.01 0.01 0.00 0.00 0.00 0.01 0.03 0.01 0.01 0.00 0.00 0.00 0.00 0.00 0.00 0.00
0.05 0.04 0.03 0.01 0.01 0.01 0.00 0.00 0.00 0.00 0.00 0.00 0.00 0.00 0.01 0.00 0.00 0.00 0.00 0.00 0.00 0.00 0.00 0.00 0.00 0.01 0.01 0.00 0.01 0.00 0.00 0.00 0.00 0.00 0.01 0.00 0.00 0.00 0.00 0.00 0.00 0.00 0.00 0.00
MSLP
1005.94 1005.88 1005.34 1004.97 1004.79 1004.59 1004.41 1004.25 1003.67 1003.23 1002.82 1002.47 1001.78 1001.18 1000.75 1000.32 999.78 999.53 999.43 999.20 999.09 999.24 999.48 999.77 1000.11 1000.47 1000.95 1001.51 1001.96 1002.30 1002.97 1003.64 1004.10 1004.25 1004.34 1003.64 1003.50 1004.30 1004.77 1004.65 1004.69 1005.69 1006.17 1006.91
1005.87 1004.96 1004.51 1004.86 1005.09 1005.03 1004.90 1004.50 1003.79 1003.08 1002.68 1002.22 1001.51 1001.13 1001.03 1000.20 999.42 999.06 998.79 998.42 998.16 998.28 998.52 998.93 999.39 999.96 1000.57 1001.22 1001.69 1002.26 1002.76 1003.45 1003.90 1004.04 1004.53 1004.30 1004.43 1004.61 1004.68 1004.73 1004.79 1005.40 1006.15 1006.88
1006.26 1005.59 1005.19 1005.35 1005.27 1005.05 1004.83 1004.59 1004.08 1003.59 1002.96 1002.23 1001.60 1000.59 999.93 999.53 999.44 998.12 997.40 997.27 997.24 997.44 997.73 998.09 998.58 999.26 1000.02 1000.77 1001.45 1002.07 1002.62 1003.11 1003.57 1003.84 1004.06 1004.44 1004.55 1004.81 1004.35 1004.59 1004.61 1005.24 1006.00 1006.76
1006.55 1005.50 1005.38 1005.57 1005.49 1005.35 1004.77 1005.03 1004.81 1004.43 1003.87 1002.59 1002.15 1000.47 999.77 998.75 998.06 998.16 998.71 996.62 996.56 996.88 997.18 997.77 998.11 998.59 999.38 1000.15 1000.90 1001.50 1002.10 1002.58 1003.14 1003.58 1003.78 1004.02 1004.36 1004.39 1004.40 1003.89 1004.71 1005.01 1005.79 1006.48
1006.69 1006.12 1005.82 1005.50 1005.48 1006.01 1005.79 1005.69 1005.48 1004.97 1004.19 1003.35 1002.29 1001.33 999.21 998.26 997.51 996.84 996.00 996.54 997.12 997.43 997.39 997.50 997.84 998.35 998.85 999.58 1000.37 1000.91 1001.46 1002.04 1002.39 1002.85 1003.40 1003.58 1004.11 1004.27 1004.13 1004.35 1004.40 1004.99 1005.39 1005.98
1006.44 1005.70 1005.54 1005.08 1005.78 1006.21 1005.93 1005.29 1004.97 1004.56 1003.77 1002.71 1002.04 1002.25 999.99 999.39 999.55 999.11 998.90 997.54 997.27 997.39 997.81 998.28 998.37 998.33 998.62 999.06 999.81 1000.47 1001.04 1001.59 1001.90 1002.31 1002.87 1003.44 1003.75 1003.95 1004.12 1004.24 1004.46 1004.52 1004.62 1005.53
1006.53 1006.04 1005.33 1005.43 1005.79 1005.84 1005.85 1005.75 1005.22 1005.08 1004.25 1003.64 1004.06 1004.15 1002.77 1001.33 999.79 998.63 998.34 997.61 997.46 997.68 998.01 998.49 998.51 998.59 998.71 999.12 999.57 999.98 1000.48 1001.00 1001.37 1001.74 1002.34 1002.88 1003.25 1003.59 1003.47 1003.50 1004.25 1003.82 1003.69 1005.36
1006.82 1006.01 1006.05 1006.01 1006.61 1006.29 1006.02 1006.37 1006.14 1005.22 1005.16 1004.02 1003.59 1002.77 1001.09 999.69 999.70 998.58 998.53 998.53 998.39 998.02 998.28 998.58 998.70 998.89 998.95 999.29 999.59 999.83 1000.04 1000.49 1000.92 1001.35 1001.73 1002.32 1002.50 1002.94 1002.89 1003.05 1003.78 1003.45 1003.49 1004.82
1008.09 1007.24 1006.94 1007.26 1006.48 1006.96 1006.24 1006.48 1006.16 1006.38 1006.24 1005.10 1003.99 1001.72 1001.15 1001.20 1000.61 999.27 999.30 999.22 998.85 998.67 998.88 999.20 999.59 999.73 999.90 1000.27 1000.37 1000.58 1000.50 1000.76 1000.90 1001.02 1001.28 1001.77 1002.11 1002.35 1002.42 1002.66 1003.39 1004.17 1005.13 1004.09
1009.36 1008.18 1008.23 1007.48 1006.86 1006.62 1006.62 1006.25 1006.46 1007.38 1007.09 1005.42 1003.40 1002.73 1003.20 1003.51 1002.92 1002.07 1001.04 1000.54 999.82 999.63 999.76 1000.15 1000.47 1000.87 1000.92 1000.87 1001.01 1001.05 1001.03 1001.06 1001.32 1001.35 1001.21 1001.36 1001.63 1001.87 1002.01 1002.24 1003.24 1001.70 1004.15 1005.56
1010.04 1009.98 1008.18 1008.32 1007.62 1006.46 1006.03 1005.84 1006.96 1007.05 1007.92 1006.93 1005.28 1004.15 1004.02 1004.12 1004.27 1003.30 1002.54 1002.30 1001.71 1000.91 1000.36 1000.98 1001.41 1001.64 1001.64 1001.70 1001.31 1001.41 1001.17 1001.19 1001.40 1001.36 1001.38 1001.28 1001.40 1001.48 1001.75 1002.21 1003.37 1004.01 1003.64 1005.50
1010.64 1010.57 1009.58 1008.99 1008.06 1006.93 1006.59 1006.36 1006.82 1007.42 1007.60 1007.03 1006.64 1004.51 1003.48 1003.03 1003.49 1004.37 1004.47 1004.13 1003.40 1003.01 1001.71 1001.00 1001.26 1001.81 1001.97 1001.98 1001.82 1001.54 1001.49 1001.27 1001.11 1001.25 1001.06 1001.19 1001.30 1001.49 1001.83 1002.36 1003.89 1003.54 1005.45 1007.08
1010.88 1011.36 1010.84 1009.03 1007.31 1007.03 1007.06 1007.09 1007.43 1008.06 1008.40 1007.64 1006.74 1004.04 1003.28 1002.73 1002.79 1002.83 1003.08 1003.41 1003.61 1003.21 1002.74 1002.37 1002.11 1002.31 1002.65 1002.60 1002.42 1001.95 1001.64 1001.46 1001.35 1001.20 1001.10 1001.02 1001.23 1001.81 1002.45 1003.10 1004.02 1005.26 1005.15 1006.97
1011.19 1011.82 1012.00 1011.22 1009.91 1009.36 1008.39 1008.09 1007.93 1007.71 1007.64 1007.02 1005.64 1004.23 1003.48 1003.14 1002.74 1002.59 1003.29 1003.50 1003.47 1003.31 1002.86 1002.71 1002.86 1002.87 1003.00 1002.88 1002.71 1002.47 1001.93 1001.61 1001.51 1001.34 1001.02 1000.74 1001.80 1002.65 1003.39 1004.07 1005.29 1006.00 1005.91 1006.97
1010.87 1011.63 1011.98 1011.42 1010.61 1009.93 1008.86 1007.67 1007.15 1006.97 1006.64 1005.92 1004.70 1004.56 1004.72 1004.21 1003.93 1003.82 1003.47 1003.26 1003.26 1002.90 1002.58 1002.55 1002.98 1003.26 1003.41 1003.22 1002.96 1002.82 1002.58 1001.71 1001.53 1001.40 1000.99 1001.37 1001.79 1002.58 1004.38 1004.92 1006.08 1007.59 1007.92 1009.16
1010.65 1011.49 1011.93 1011.21 1010.60 1009.60 1007.65 1006.63 1005.45 1004.87 1004.71 1004.70 1005.08 1004.52 1003.33 1003.18 1003.41 1003.77 1003.63 1003.37 1003.15 1003.20 1003.07 1003.08 1003.45 1003.47 1003.73 1003.88 1003.56 1003.13 1002.73 1002.16 1001.36 1001.24 1001.57 1002.59 1003.83 1004.53 1005.14 1005.91 1006.50 1007.60 1010.06 1010.58
1011.29 1012.29 1012.47 1010.44 1010.50 1009.08 1007.10 1005.34 1005.26 1004.90 1004.32 1004.63 1003.89 1003.60 1003.81 1003.51 1003.42 1003.59 1003.59 1003.37 1003.61 1003.78 1003.68 1003.68 1003.78 1003.79 1004.36 1004.46 1004.33 1003.76 1002.85 1002.26 1001.84 1001.63 1002.84 1003.90 1004.10 1004.83 1005.96 1007.09 1007.71 1008.63 1010.54 1012.72
1010.34 1011.82 1012.30 1011.10 1010.53 1008.36 1005.42 1004.73 1005.49 1005.43 1004.72 1004.39 1004.49 1004.39 1004.97 1005.01 1004.57 1004.28 1004.08 1003.73 1003.68 1003.77 1003.63 1003.73 1004.01 1004.25 1004.74 1004.94 1004.97 1004.36 1003.40 1002.51 1002.22 1002.25 1003.52 1004.48 1005.02 1006.12 1007.21 1008.21 1009.73 1010.40 1011.62 1014.38
1008.49 1010.54 1011.40 1011.15 1009.65 1007.24 1005.58 1006.25 1006.05 1005.70 1005.42 1005.35 1005.58 1006.06 1006.07 1005.65 1005.04 1004.32 1004.27 1003.74 1003.58 1003.86 1003.98 1004.39 1004.78 1004.97 1005.17 1005.29 1005.16 1004.32 1003.53 1003.12 1002.47 1003.16 1004.09 1005.22 1005.85 1007.13 1008.30 1009.64 1011.71 1011.61 1012.93 1015.42
1008.99 1010.47 1011.77 1010.98 1009.03 1007.05 1005.15 1006.58 1006.31 1005.52 1005.34 1006.36 1007.16 1007.07 1006.81 1006.40 1005.50 1003.13 1004.51 1004.46 1004.26 1004.16 1004.24 1004.55 1004.90 1005.09 1005.11 1005.05 1004.92 1004.29 1003.89 1003.51 1003.45 1004.12 1005.13 1006.15 1007.09 1008.18 1009.49 1010.63 1011.45 1013.18 1013.59 1015.50
1008.42 1009.15 1009.80 1009.25 1008.39 1006.76 1006.53 1006.05 1005.51 1005.59 1006.58 1007.02 1007.57 1007.52 1007.06 1006.84 1006.23 1004.57 1004.37 1004.33 1004.39 1004.21 1003.90 1004.07 1004.31 1004.45 1004.50 1004.59 1004.32 1004.10 1004.25 1003.80 1004.02 1005.04 1006.17 1007.35 1008.38 1009.33 1010.41 1011.61 1012.90 1014.39 1015.66 1016.67
1009.01 1009.07 1008.76 1008.40 1007.46 1005.96 1005.36 1005.64 1006.84 1007.22 1006.99 1007.31 1007.46 1007.35 1006.98 1006.54 1005.61 1004.83 1004.04 1003.13 1002.72 1002.61 1002.58 1002.60 1003.16 1003.40 1003.86 1003.98 1004.05 1003.91 1004.24 1003.97 1004.77 1005.79 1007.21 1008.65 1009.87 1010.56 1011.63 1012.82 1014.97 1015.25 1016.22 1017.00
1009.31 1009.19 1009.22 1009.28 1007.46 1006.59 1006.44 1006.33 1006.62 1007.11 1007.42 1007.25 1007.52 1007.31 1006.97 1005.91 1004.75 1003.85 1002.42 1001.04 999.85 999.58 1000.13 1000.86 1001.94 1002.61 1003.05 1003.29 1003.36 1003.70 1003.88 1004.16 1005.54 1006.80 1008.38 1009.83 1010.97 1011.89 1012.74 1013.68 1015.44 1015.64 1016.98 1018.01
1009.17 1008.71 1008.82 1008.59 1006.79 1006.64 1006.49 1006.69 1007.16 1007.40 1007.33 1007.41 1007.50 1007.13 1006.35 1005.09 1003.60 1002.19 1000.99 999.14 997.60 996.58 997.03 999.10 1000.73 1001.78 1002.11 1002.36 1002.98 1003.63 1004.07 1004.94 1006.32 1007.89 1009.40 1010.68 1011.57 1013.11 1014.42 1015.04 1015.53 1015.90 1017.09 1017.79
1009.42 1009.08 1008.27 1007.59 1007.15 1007.33 1007.26 1007.65 1007.67 1007.36 1007.47 1007.49 1006.97 1006.33 1005.40 1004.14 1002.78 1001.96 1000.41 998.42 995.68 994.54 995.65 997.95 999.83 1001.02 1001.49 1001.95 1003.06 1004.03 1004.98 1005.78 1007.28 1008.93 1010.47 1011.82 1012.96 1014.10 1015.31 1016.87 1016.90 1016.92 1018.24 1018.36
1008.77 1008.67 1008.76 1008.15 1008.26 1008.28 1007.83 1007.72 1007.59 1007.57 1007.57 1007.01 1006.26 1005.26 1004.54 1003.73 1002.94 1001.90 1000.62 998.92 997.08 996.57 997.09 998.24 999.56 1000.65 1001.38 1002.31 1003.62 1004.71 1005.70 1006.55 1007.90 1009.65 1011.32 1012.71 1013.91 1015.28 1015.91 1016.67 1017.59 1018.67 1018.60 1018.57
Thickness
5703 5685 5677 5684 5686 5681 5673 5662 5655 5662 5672 5662 5660 5664 5667 5682 5688 5683 5687 5695 5701 5703 5711 5715 5722 5727 5729 5732 5733 5739 5745 5749 5749 5754 5759 5771 5771 5775 5780 5787 5792 5791 5786 5784
5690 5681 5699 5694 5683 5672 5662 5650 5648 5658 5665 5663 5657 5649 5658 5672 5678 5681 5682 5691 5701 5704 5706 5707 5713 5716 5716 5718 5720 5723 5733 5739 5739 5745 5747 5757 5763 5768 5774 5778 5780 5785 5780 5777
5670 5681 5690 5677 5669 5660 5657 5644 5640 5637 5648 5654 5649 5645 5657 5669 5667 5683 5694 5702 5707 5706 5704 5704 5707 5711 5711 5708 5707 5709 5717 5724 5726 5733 5739 5745 5751 5757 5768 5766 5772 5779 5774 5772
5670 5686 5675 5663 5653 5654 5639 5649 5638 5629 5623 5616 5645 5620 5650 5670 5678 5676 5665 5702 5707 5707 5707 5704 5704 5707 5707 5706 5706 5704 5706 5712 5713 5720 5727 5734 5737 5744 5756 5760 5765 5768 5768 5766
5659 5664 5659 5652 5651 5645 5631 5638 5627 5625 5621 5623 5633 5628 5654 5680 5682 5695 5705 5697 5696 5698 5701 5701 5701 5702 5706 5705 5701 5701 5700 5702 5705 5709 5717 5726 5729 5738 5749 5755 5754 5759 5762 5762
5664 5678 5666 5661 5652 5641 5640 5634 5632 5631 5633 5622 5640 5619 5644 5653 5649 5653 5661 5685 5690 5693 5692 5691 5695 5698 5697 5701 5699 5696 5695 5695 5699 5700 5706 5712 5719 5728 5734 5742 5744 5756 5760 5756
5655 5656 5666 5660 5638 5640 5632 5616 5595 5589 5605 5608 5604 5595 5599 5625 5649 5669 5666 5680 5686 5687 5685 5682 5684 5686 5689 5686 5689 5690 5690 5689 5693 5693 5697 5703 5710 5718 5730 5739 5736 5744 5750 5744
5627 5628 5644 5647 5625 5617 5618 5608 5589 5578 5588 5612 5627 5606 5632 5667 5658 5675 5673 5671 5674 5679 5677 5675 5676 5677 5680 5678 5679 5683 5686 5686 5689 5689 5691 5695 5703 5711 5725 5733 5734 5742 5745 5739
5613 5620 5640 5630 5633 5618 5611 5594 5614 5585 5594 5593 5611 5640 5643 5643 5639 5658 5658 5660 5662 5666 5665 5662 5663 5664 5665 5663 5665 5667 5673 5676 5682 5684 5686 5688 5693 5703 5715 5727 5730 5724 5720 5711
5611 5598 5618 5622 5626 5620 5605 5615 5587 5579 5559 5577 5618 5616 5594 5597 5602 5615 5633 5638 5649 5652 5651 5647 5645 5644 5649 5653 5654 5657 5663 5666 5668 5672 5680 5680 5686 5696 5708 5717 5715 5714 5711 5700
5604 5592 5609 5607 5601 5601 5605 5599 5591 5591 5572 5563 5578 5601 5606 5594 5586 5609 5619 5619 5622 5630 5636 5631 5629 5631 5633 5636 5644 5645 5653 5658 5659 5665 5669 5674 5677 5690 5699 5707 5701 5702 5696 5696
5595 5582 5578 5587 5601 5606 5601 5596 5591 5567 5566 5576 5562 5575 5616 5614 5608 5589 5588 5596 5604 5607 5620 5628 5628 5624 5627 5626 5630 5637 5642 5649 5657 5660 5664 5666 5671 5676 5686 5696 5688 5694 5690 5684
5587 5564 5553 5574 5601 5597 5583 5587 5582 5570 5559 5548 5551 5576 5614 5613 5611 5611 5600 5594 5590 5596 5601 5606 5613 5612 5610 5614 5618 5627 5635 5642 5648 5654 5657 5661 5664 5663 5669 5675 5679 5681 5688 5680
5576 5550 5547 5539 5552 5556 5554 5560 5563 5561 5542 5549 5564 5575 5593 5597 5598 5601 5586 5587 5587 5589 5594 5595 5598 5600 5601 5606 5610 5615 5625 5634 5639 5646 5651 5656 5653 5651 5651 5658 5660 5669 5678 5665
5565 5541 5542 5542 5545 5542 5543 5551 5557 5552 5556 5549 5570 5570 5562 5568 5574 5574 5579 5579 5577 5583 5590 5592 5589 5589 5591 5595 5602 5607 5612 5626 5634 5639 5649 5651 5643 5649 5638 5643 5647 5646 5653 5643
5566 5535 5536 5532 5541 5540 5547 5557 5567 5572 5573 5569 5556 5556 5583 5581 5574 5565 5565 5568 5570 5569 5576 5579 5577 5580 5581 5582 5590 5598 5604 5615 5631 5637 5639 5628 5616 5624 5627 5632 5638 5641 5630 5628
5537 5523 5521 5535 5536 5539 5543 5560 5557 5560 5566 5553 5561 5570 5569 5567 5564 5557 5554 5557 5555 5556 5560 5564 5565 5570 5569 5569 5574 5584 5598 5609 5619 5627 5621 5615 5618 5620 5617 5618 5623 5627 5621 5602
5532 5518 5521 5520 5526 5524 5566 5572 5556 5545 5562 5565 5559 5558 5544 5539 5542 5544 5545 5544 5546 5548 5553 5556 5555 5556 5555 5556 5559 5570 5587 5599 5609 5618 5612 5609 5609 5603 5602 5606 5599 5605 5606 5586
5558 5526 5514 5514 5522 5548 5562 5542 5540 5538 5545 5550 5541 5528 5527 5528 5529 5537 5533 5538 5539 5537 5538 5537 5536 5537 5539 5542 5548 5562 5578 5590 5605 5605 5603 5599 5600 5595 5593 5591 5579 5593 5592 5573
5548 5526 5495 5506 5518 5532 5565 5536 5540 5547 5538 5531 5515 5514 5513 5514 5507 5545 5522 5519 5521 5522 5523 5523 5523 5525 5527 5535 5542 5555 5570 5581 5589 5594 5591 5589 5585 5582 5581 5576 5575 5573 5581 5577
5544 5540 5523 5530 5524 5536 5534 5541 5545 5530 5524 5517 5507 5505 5506 5495 5500 5513 5510 5504 5501 5503 5509 5511 5514 5517 5523 5531 5541 5551 5561 5570 5585 5583 5582 5580 5573 5571 5568 5566 5563 5561 5562 5562
5528 5523 5529 5530 5527 5532 5548 5541 5514 5512 5515 5508 5503 5499 5494 5490 5491 5491 5493 5496 5495 5495 5501 5511 5513 5517 5521 5530 5538 5547 5554 5572 5578 5577 5572 5565 5558 5560 5559 5558 5555 5559 5559 5559
5516 5523 5512 5511 5528 5535 5532 5527 5522 5510 5500 5504 5493 5488 5483 5485 5491 5495 5502 5508 5515 5513 5508 5511 5514 5517 5523 5531 5540 5547 5558 5571 5571 5567 5560 5554 5550 5550 5552 5551 5551 5558 5556 5551
5524 5529 5515 5515 5536 5529 5527 5520 5509 5503 5501 5494 5485 5482 5484 5491 5501 5509 5514 5520 5528 5538 5532 5520 5517 5519 5529 5538 5544 5550 5561 5566 5562 5556 5551 5545 5545 5541 5536 5545 5550 5558 5555 5556
5515 5516 5519 5524 5527 5515 5513 5501 5497 5499 5494 5485 5485 5485 5491 5500 5510 5511 5519 5525 5543 5552 5543 5532 5527 5527 5537 5546 5547 5551 5555 5559 5555 5547 5540 5536 5536 5532 5532 5535 5547 5549 5545 5552
5521 5511 5499 5501 5508 5494 5493 5498 5496 5492 5484 5484 5486 5493 5500 5502 5506 5512 5516 5523 5537 5541 5540 5541 5538 5537 5545 5546 5547 5550 5552 5555 5552 5544 5535 5529 5529 5528 5537 5540 5538 5537 5545 5552